Showing default

GOES 14, 35491

Orbit data source: Space-Track

GOES 14, 35491 is a payload satellite owned by NOAA (US) in GEO that was launched on Sat, 27 Jun 2009 UTC via a DELTA 4M+(4,2) launch vehicle from the Air Force Eastern Test Range (AFETR). Payload-class satellites include a variety of spacecraft equipped with specific instruments for various scientific and technological missions. These include communications satellites like Starlink; space stations such as the ISS; scientific satellites like the Hubble; Earth observation satellites from companies like Planet Labs, Umbra, and HawkEye 360; GPS; miniature CubeSats for education and research; and military/defense satellites.

Loading next visibility...
Identifier
35491, 2009-033A
Orbit
GEO
Country
Flag of USUS
Related business
Manufacturer
Boeing/ES
Mission
On reserve Civil Weather
Bus & Motor
HS-601, R-4D?
Mass
3,209 kg wet, 1,543 kg dry
Launch date (UTC)
2009-06-27 (16 years ago)
Launch vehicle
DELTA 4M+(4,2)
Launch site
Air Force Eastern Test Range (AFETR)
Object type
Payload
Rocket body
Debris
Shape & HBR
Box + 1 Pan + 1 Ant, 4.1 m
Radar Cross Section
14.281 m², Large (>1 m²)

Expand to show TLE details & history
Last TLE update: 12 hours ago

TLE from 12 hours ago
0 GOES 14
1 35491U 09033A   25261.25244889 -.00000087  00000-0  00000-0 0  9991
2 35491   0.9729  86.5402 0003783 108.4103 145.0073  1.00270077  3865
Epoch: 2025-09-18T06:03Z
TLE epoch observation values (Epoch: 2025-09-18T06:03:31.584Z)
Latitude
-0.93279°
Longitude
-108.31785°
Altitude
35,799.836 km
Speed
3.074 km/s
True Right ascension
22h 39m 55s
True Declination
0° 55' 55"
Sunlit
Object was in daylight at epoch
Visualization orbit readout
Latitude
Unknown
Longitude
Unknown
Altitude
Unknown
Speed
Unknown
Apparent Right ascension
Unknown
Apparent Declination
Unknown
Sunlit
N/A
Visualization observer readout
Local Sidereal Time
11:23:58
Azimuth
Unknown
Elevation
Unknown
Doppler factor
Unknown
Orbital elements
Apogee altitude
35,804.095 km
Perigee altitude
35,772.192 km
Semi-major axis
42,166.281 km
Eccentricity
0.00038
Inclination
0.9729°
RAAN
86.5402°
Arg. of periapsis
108.4103°
True anomaly
145.03215°
Mean anomaly
145.0073°
Eccentric anomaly
145.01973°
Mean motion
0.25067 °/min
Orbital period
1,436.17 mins
BSTAR
0
Loading maneuver chart data...
Computing Atmospheric mass density...
Loading historical data...
Loading historical data...
Loading historical data...
Loading historical data...
Loading historical data...
Loading historical data...
Loading historical data...
Other satellites on launch #33 in the year 2009 (2009-06-27 UTC)

Documentation

Showing up to 5 results
|